Tampa, FL

7:55 AM EDT on April 30, 2017 (GMT -0400)
Tampa International

Weather History for KTPA - March, 2012

Change the Weather History Date:

Thursday, March 8, 2012

  Actual Average Record
Temperature  
Mean Temperature 75 °F 66 °F  
Max Temperature 86 °F 75 °F 88 °F (1974)
Min Temperature 63 °F 57 °F 34 °F (1899)
Degree Days  
Heating Degree Days 0 2  
Month to date heating degree days 3 22  
Since 1 July heating degree days 208 493  
Cooling Degree Days 10 4  
Month to date cooling degree days 51 26  
Year to date cooling degree days 241 139  
Growing Degree Days 24 (Base 50)    
Moisture  
Dew Point 61 °F    
Average Humidity 64    
Maximum Humidity 93    
Minimum Humidity 35    
Precipitation  
Precipitation 0.00 in 0.10 in 1.95 in (1969)
Month to date precipitation 0.14 0.77  
Year to date precipitation 3.11 5.81  
Sea Level Pressure  
Sea Level Pressure 30.24 in    
Wind  
Wind Speed 6 mph (East)    
Max Wind Speed 14 mph    
Max Gust Speed 24 mph    
Visibility 10 miles    
Events      
T = Trace of Precipitation, MM = Missing Value Source: NWS Daily Summary

Daily Weather History Graph

Daily Weather History Graph

Search for Another Location

Airport or City:

Trip Planner

Search our weather history database for the weather conditions in past years. The results will help you decide how hot, cold, wet, or windy it might be!

Date:

Astronomy

Mar. 08, 2012 Rise Set
Actual Time 6:46 AM EST 6:35 PM EST
Civil Twilight 6:23 AM EST 6:58 PM EST
Nautical Twilight 5:56 AM EST 7:25 PM EST
Astronomical Twilight 5:29 AM EST 7:52 PM EST
Moon 7:11 PM EST (3/8) 6:36 AM EST (3/8)
Length of Visible Light 12h 35m
Length of Day
11h 48m
Full, 100% of the Moon is Illuminated
Mar 8
Full
Mar 14
Last Quarter
Mar 22
New
Mar 30
First Quarter
Apr 6
Full

Hourly Weather History & Observations

Time (EST) Temp. Heat Index Dew Point Humidity Pressure Visibility Wind Dir Wind Speed Gust Speed Precip Events Conditions
12:53 AM 66.0 °F - 61.0 °F 84% 30.30 in 10.0 mi NE 3.5 mph - N/A   Clear
1:53 AM 66.0 °F - 61.0 °F 84% 30.29 in 10.0 mi ENE 3.5 mph - N/A   Clear
2:53 AM 64.9 °F - 61.0 °F 87% 30.27 in 10.0 mi Variable 3.5 mph - N/A   Clear
3:53 AM 64.0 °F - 61.0 °F 90% 30.25 in 10.0 mi ENE 3.5 mph - N/A   Clear
4:53 AM 64.0 °F - 61.0 °F 90% 30.26 in 10.0 mi ENE 5.8 mph - N/A   Clear
5:53 AM 63.0 °F - 61.0 °F 93% 30.27 in 9.0 mi East 3.5 mph - N/A   Partly Cloudy
6:53 AM 64.0 °F - 61.0 °F 90% 30.29 in 8.0 mi ENE 4.6 mph - N/A   Clear
7:53 AM 66.0 °F - 62.1 °F 87% 30.30 in 9.0 mi East 4.6 mph - N/A   Clear
8:53 AM 71.1 °F - 63.0 °F 75% 30.30 in 10.0 mi East 8.1 mph - N/A   Clear
9:53 AM 75.9 °F - 63.0 °F 64% 30.30 in 10.0 mi East 9.2 mph 21.9 mph N/A   Scattered Clouds
10:53 AM 79.0 °F - 62.1 °F 56% 30.30 in 10.0 mi ESE 10.4 mph 17.3 mph N/A   Scattered Clouds
11:53 AM 81.0 °F 81.7 °F 61.0 °F 50% 30.28 in 10.0 mi Variable 6.9 mph - N/A   Scattered Clouds
12:53 PM 82.9 °F 82.6 °F 57.9 °F 42% 30.24 in 10.0 mi SE 11.5 mph 17.3 mph N/A   Scattered Clouds
1:53 PM 84.0 °F 83.8 °F 59.0 °F 43% 30.20 in 10.0 mi ENE 6.9 mph - N/A   Mostly Cloudy
2:53 PM 84.0 °F 83.3 °F 57.0 °F 40% 30.18 in 10.0 mi ESE 4.6 mph - N/A   Partly Cloudy
3:53 PM 86.0 °F 84.7 °F 55.9 °F 36% 30.16 in 10.0 mi Calm Calm - N/A   Scattered Clouds
4:53 PM 84.9 °F 83.9 °F 57.0 °F 38% 30.15 in 10.0 mi Variable 5.8 mph - N/A   Mostly Cloudy
5:53 PM 82.0 °F 83.0 °F 62.1 °F 51% 30.17 in 10.0 mi SSE 6.9 mph 16.1 mph N/A   Mostly Cloudy
6:53 PM 79.0 °F - 63.0 °F 58% 30.18 in 10.0 mi SE 6.9 mph - N/A   Scattered Clouds
7:53 PM 77.0 °F - 63.0 °F 62% 30.20 in 10.0 mi SE 3.5 mph - N/A   Scattered Clouds
8:53 PM 75.9 °F - 64.0 °F 67% 30.22 in 10.0 mi ESE 6.9 mph - N/A   Mostly Cloudy
9:53 PM 73.9 °F - 64.0 °F 71% 30.22 in 10.0 mi SE 6.9 mph - N/A   Scattered Clouds
10:53 PM 73.0 °F - 64.0 °F 73% 30.22 in 10.0 mi SE 6.9 mph - N/A   Partly Cloudy
11:53 PM 73.0 °F - 64.0 °F 73% 30.21 in 10.0 mi East 3.5 mph - N/A   Mostly Cloudy